Regional Weather Roundup
Issued by NWS

Home | Current Version | Previous Version | Graphics & Text | Print | Product List | Glossary On
Versions: 1 2 3 4 5 6 7 8 9 10 11 12 13 14 15 16 17 18 19 20 21 22 23 24 25 26 27 28 29 30 31 32 33 34 35 36 37 38 39 40 41 42 43 44 45 46 47 48 49 50
000
ASUS45 KABQ 230301
RWRNM
NEW MEXICO REGIONAL WEATHER ROUNDUP
NATIONAL WEATHER SERVICE ALBUQUERQUE NM
800 PM MST WED NOV 22 2017

NOTE: "FAIR" MEANS FEW OR NO CLOUDS BELOW 12,000 FEET AGL WITH NO
       SIGNIFICANT WEATHER OR OBSTRUCTIONS TO VISION.

      THIS PRODUCT IS RELEASED AS TWO VERSIONS.  ONE VERSION NEAR
      THE TOP OF THE HOUR CONTAINING PRELIMINARY DATA FROM ALBUQUERQUE
      AND OTHER STATIONS.  A FINAL VERSION WITH ADDITIONAL DATA IS
      ISSUED ABOUT 10 MINUTES AFTER THE HOUR.

NMZ501-503-504-510>518-230400-
NORTHWEST PLATEAU/NORTHCENTRAL MOUNTAINS

CITY           SKY/WX    TMP DP  RH WIND       PRES   REMARKS
FARMINGTON     FAIR      42  26  53 NE5       30.34R
LOS ALAMOS     FAIR      53  23  31 NW8       30.41R
SANTA FE       FAIR      37  26  64 NW3       30.36R
TAOS           FAIR      43  25  49 W3        30.43R
ANGEL FIRE     FAIR      30  25  81 CALM      30.45S

$$
NMZ402-403-502-505>509-230400-
WESTCENTRAL MOUNTAINS/SOUTHWEST MOUNTAINS

CITY           SKY/WX    TMP DP  RH WIND       PRES   REMARKS
GALLUP         FAIR      39  25  57 CALM      30.41R
GRANTS         FAIR      42  26  53 NW6       30.42R
SILVER CITY    FAIR      39  18  42 N8        30.34S WCI  34

$$
NMZ407-409-411-412-230400-
SOUTHERN DESERTS

CITY           SKY/WX    TMP DP  RH WIND       PRES   REMARKS
DEMING         FAIR      49  18  29 N6        30.30S
LAS CRUCES     FAIR      46  22  38 CALM      30.32R
ALAMOGORDO     FAIR      48  23  37 CALM      30.30S
T OR C         FAIR      51  21  30 CALM      30.32R

$$
NMZ519>523-230400-
CENTRAL VALLEYS/CENTRAL HIGHLANDS

CITY           SKY/WX    TMP DP  RH WIND       PRES   REMARKS
ALBUQUERQUE    FAIR      48  25  40 CALM      30.34R
DOUBLE EAGLE   CLEAR     39  23  52 SW6       30.37R WCI  35
MORIARTY ARPT  FAIR      38  22  52 CALM      30.38R
CLINES CORNERS FAIR      47  24  40 NW9       30.39R
BELEN          FAIR      45  25  45 CALM      30.35R
SOCORRO        FAIR      48  22  35 W7        30.33R

$$
NMZ524>526-539-540-230400-
SOUTHCENTRAL MOUNTAINS

CITY           SKY/WX    TMP DP  RH WIND       PRES   REMARKS
RUIDOSO        FAIR      48  21  34 W8        30.39R

$$
NMZ527>531-230400-
NORTHEAST HIGHLANDS/NORTHEAST PLAINS

CITY           SKY/WX    TMP DP  RH WIND       PRES   REMARKS
LAS VEGAS      FAIR      41  21  44 S13       30.36S
RATON          FAIR      38  22  52 N7        30.33R WCI  33
CLAYTON        FAIR      47  27  45 W9        30.27R

$$
NMZ532>537-230400-
EASTCENTRAL PLAINS

CITY           SKY/WX    TMP DP  RH WIND       PRES   REMARKS
SANTA ROSA     FAIR      44  28  52 SW5       30.30R
TUCUMCARI      FAIR      46  29  51 W8        30.23R
CANNON AFB     FAIR      46  28  48 W6        30.28R
CLOVIS AIRPORT FAIR      40  27  59 W7        30.27R

$$
NMZ028-029-538-230400-
SOUTHEAST PLAINS

CITY           SKY/WX    TMP DP  RH WIND       PRES   REMARKS
ROSWELL        FAIR      44  27  51 SW5       30.27R
ARTESIA        FAIR      46  28  49 CALM      30.26S
CARLSBAD       FAIR      45  30  55 S7        30.25S
HOBBS          FAIR      41  27  56 W6        30.28R


$$




USA.gov is the U.S. government's official web portal to all federal, state and local government web resources and services.